Darwin, Australia

1:18 AM ACST on April 20, 2018 (GMT +0930)
Darwin International

Weather History for YPDN - June, 2013

Change the Weather History Date:

Thursday, June 20, 2013

  Actual Average Record
Temperature  
Mean Temperature 80 °F -  
Max Temperature 87 °F 87 °F 91 °F (2017)
Min Temperature 72 °F 67 °F 57 °F (2004)
Cooling Degree Days 14    
Growing Degree Days 30 (Base 50)    
Moisture  
Dew Point 56 °F    
Average Humidity 44    
Maximum Humidity 73    
Minimum Humidity 18    
Precipitation  
Precipitation 0.00 in 0.00 in - ()
Sea Level Pressure  
Sea Level Pressure 29.88 in    
Wind  
Wind Speed 10 mph ()    
Max Wind Speed 17 mph    
Max Gust Speed -    
Visibility 12.6 miles    
Events Rain    
Averages and records for this station are not official NWS values.
T = Trace of Precipitation, MM = Missing Value Source: Averaged Metar Reports

Daily Weather History Graph

Daily Weather History Graph

Search for Another Location

Airport or City:

Astronomy

Jun. 20, 2013 Rise Set
Actual Time 7:06 AM ACST 6:29 PM ACST
Civil Twilight 6:43 AM ACST 6:52 PM ACST
Nautical Twilight 6:16 AM ACST 7:19 PM ACST
Astronomical Twilight 5:50 AM ACST 7:45 PM ACST
Moon 3:23 PM ACST (6/20) 3:23 AM ACST (6/20)
Length of Visible Light 12h 09m
Length of Day
11h 23m
Waxing Gibbous, 84% of the Moon is Illuminated
Jun 20
Waxing Gibbous
Jun 23
Full
Jun 30
Last Quarter
Jul 8
New
Jul 16
First Quarter

Hourly Weather History & Observations

Time (ACST) Temp. Heat Index Dew Point Humidity Pressure Visibility Wind Dir Wind Speed Gust Speed Precip Events Conditions
12:00 AM 77.0 °F - 64.4 °F 65% 29.89 in - SE 8.1 mph - N/A   Clear
12:30 AM 78 °F - 61 °F 45% 29.89 in - ESE 9.2 mph - -  
12:30 AM 78.8 °F - 60.8 °F 54% 29.89 in - ESE 9.2 mph - N/A   Clear
1:00 AM 78.8 °F - 59.0 °F 51% 29.89 in - ESE 8.1 mph - N/A   Clear
1:30 AM 78.8 °F - 59.0 °F 51% 29.89 in 6.2 mi SSE 6.9 mph - N/A Rain Light Rain
2:00 AM 77.0 °F - 62.6 °F 61% 29.89 in 6.2 mi SSE 4.6 mph - N/A Rain Light Rain
2:30 AM 75.2 °F - 62.6 °F 65% 29.89 in 6.2 mi South 6.9 mph - N/A Rain Light Rain
3:00 AM 74 °F - 65 °F 67% 29.90 in 16 mi SE 6.9 mph - - Rain Light Rain
3:00 AM 75.2 °F - 64.4 °F 69% 29.89 in 6.2 mi SE 6.9 mph - N/A Rain Light Rain
3:30 AM 75 °F - 62 °F 55% 29.88 in - SE 9.2 mph - -  
3:30 AM 75.2 °F - 62.6 °F 65% 29.86 in - SE 9.2 mph - N/A   Clear
4:00 AM 75.2 °F - 60.8 °F 61% 29.86 in - SE 10.4 mph - N/A   Clear
4:30 AM 73.4 °F - 62.6 °F 69% 29.86 in 6.2 mi SE 10.4 mph - N/A   Mostly Cloudy
5:00 AM 71.6 °F - 62.6 °F 73% 29.86 in 6.2 mi SE 12.7 mph - N/A   Mostly Cloudy
5:30 AM 71.6 °F - 62.6 °F 73% 29.86 in - SE 10.4 mph - N/A   Clear
6:00 AM 73 °F - 62 °F 59% 29.85 in 16 mi East 13.8 mph - -   Partly Cloudy
6:00 AM 73.4 °F - 60.8 °F 65% 29.86 in - East 13.8 mph - N/A   Clear
6:30 AM 74 °F - 61 °F 55% 29.86 in - East 17.3 mph - -  
6:30 AM 75.2 °F - 60.8 °F 61% 29.86 in - East 17.3 mph - N/A   Clear
7:00 AM 73.4 °F - 60.8 °F 65% 29.86 in - East 12.7 mph - N/A   Clear
7:30 AM 75.2 °F - 60.8 °F 61% 29.86 in - East 11.5 mph - N/A   Clear
8:00 AM 75.2 °F - 60.8 °F 61% 29.89 in - East 13.8 mph - N/A   Clear
8:30 AM 75.2 °F - 60.8 °F 61% 29.89 in - East 12.7 mph - N/A   Clear
9:00 AM 78 °F - 61 °F 45% 29.92 in 19 mi East 11.5 mph - -   Partly Cloudy
9:00 AM 78.8 °F - 60.8 °F 54% 29.92 in - East 11.5 mph - N/A   Clear
9:30 AM 81 °F - 59 °F 37% 29.94 in - East 16.1 mph - -  
9:30 AM 80.6 °F 81.1 °F 59.0 °F 48% 29.92 in - East 16.1 mph - N/A   Clear
10:00 AM 80.6 °F 80.8 °F 57.2 °F 45% 29.92 in - East 17.3 mph - N/A   Clear
10:30 AM 80.6 °F 80.5 °F 55.4 °F 42% 29.92 in - East 15.0 mph - N/A   Clear
11:00 AM 82.4 °F 81.7 °F 55.4 °F 39% 29.92 in - East 17.3 mph - N/A   Clear
11:30 AM 82.4 °F 81.4 °F 53.6 °F 37% 29.92 in - East 16.1 mph - N/A   Clear
12:00 PM 85 °F - 48 °F 18% 29.91 in 19 mi East 13.8 mph - -   Partly Cloudy
12:00 PM 84.2 °F - 48.2 °F 29% 29.89 in - East 13.8 mph - N/A   Clear
12:30 PM 87 °F - 51 °F 19% 29.89 in - East 13.8 mph - -  
12:30 PM 86.0 °F - 50.0 °F 29% 29.89 in - East 13.8 mph - N/A   Clear
1:00 PM 86.0 °F - 48.2 °F 27% 29.89 in - East 15.0 mph - N/A   Clear
1:30 PM 86.0 °F - 50.0 °F 29% 29.86 in - ENE 15.0 mph - N/A   Clear
2:00 PM 86.0 °F - 50.0 °F 29% 29.86 in - East 12.7 mph - N/A   Clear
2:30 PM 86.0 °F - 50.0 °F 29% 29.83 in - East 16.1 mph - N/A   Clear
3:00 PM 86 °F - 50 °F 19% 29.84 in 19 mi East 12.7 mph - -   Partly Cloudy
3:00 PM 86.0 °F - 50.0 °F 29% 29.83 in - East 12.7 mph - N/A   Clear
3:30 PM 86 °F - 50 °F 19% 29.84 in - NE 11.5 mph - -  
3:30 PM 86.0 °F - 50.0 °F 29% 29.83 in - NE 11.5 mph - N/A   Clear
4:00 PM 86.0 °F - 51.8 °F 31% 29.83 in - East 11.5 mph - N/A   Clear
4:30 PM 84.2 °F - 51.8 °F 33% 29.83 in - ENE 9.2 mph - N/A   Clear
5:00 PM 84.2 °F - 51.8 °F 33% 29.83 in - East 8.1 mph - N/A   Clear
5:30 PM 82.4 °F - 51.8 °F 35% 29.83 in - SE 12.7 mph - N/A   Clear
6:00 PM 82 °F - 51 °F 24% 29.86 in 19 mi SE 10.4 mph - -   Partly Cloudy
6:00 PM 82.4 °F - 51.8 °F 35% 29.86 in - SE 10.4 mph - N/A   Clear
6:30 PM 82 °F - 51 °F 23% 29.87 in - SSE 8.1 mph - -  
6:30 PM 82.4 °F - 50.0 °F 32% 29.86 in - SSE 8.1 mph - N/A   Clear
7:00 PM 80.6 °F 80.3 °F 53.6 °F 39% 29.86 in - SSE 9.2 mph - N/A   Clear
7:30 PM 80.6 °F 80.3 °F 53.6 °F 39% 29.89 in - SE 11.5 mph - N/A   Clear
8:00 PM 80.6 °F 80.5 °F 55.4 °F 42% 29.89 in - SE 13.8 mph - N/A   Clear
8:30 PM 78.8 °F - 55.4 °F 44% 29.92 in - SE 12.7 mph - N/A   Clear
9:00 PM 79 °F - 54 °F 31% 29.92 in 19 mi SE 13.8 mph - -   Partly Cloudy
9:00 PM 78.8 °F - 53.6 °F 42% 29.92 in - SE 13.8 mph - N/A   Clear
9:30 PM 78 °F - 54 °F 32% 29.93 in - SSE 9.2 mph - -  
9:30 PM 78.8 °F - 53.6 °F 42% 29.92 in - SSE 9.2 mph - N/A   Clear
10:00 PM 78.8 °F - 53.6 °F 42% 29.92 in - SE 13.8 mph - N/A   Clear
10:30 PM 77.0 °F - 51.8 °F 41% 29.92 in - SE 15.0 mph - N/A   Clear
11:00 PM 77.0 °F - 51.8 °F 41% 29.92 in - SE 15.0 mph - N/A   Clear
11:30 PM 77.0 °F - 51.8 °F 41% 29.92 in - SE 13.8 mph - N/A   Clear